Weather History for Broomfield, CO

Change the Weather History Date:

Monday, January 9, 2012

  Actual Average Record
Temperature  
Mean Temperature 38 °F -  
Max Temperature 50 °F 44 °F 64 °F (1990)
Min Temperature 26 °F 23 °F -2 °F (1993)
Degree Days  
Heating Degree Days 27    
Moisture  
Dew Point 17 °F    
Average Humidity 48    
Maximum Humidity 70    
Minimum Humidity 28    
Precipitation  
Precipitation 0.00 in - - ()
Sea Level Pressure  
Sea Level Pressure 30.19 in    
Wind  
Wind Speed 2 mph (SSW)    
Max Wind Speed 9 mph    
Max Gust Speed -    
Visibility 10 miles    
Events      
Averages and records for this station are not official NWS values.
T = Trace of Precipitation, MM = Missing Value Source: NWS Daily Summary

Daily Weather History Graph

Daily Weather History Graph

Search for Another Location

Airport:

Trip Planner

Search our weather history database for the weather conditions in past years. The results will help you decide how hot, cold, wet, or windy it might be!

Date:

Astronomy

Jan. 09, 2012 Rise Set
Actual Time 7:21 AM MST 4:53 PM MST
Civil Twilight 6:51 AM MST 5:23 PM MST
Nautical Twilight 6:18 AM MST 5:56 PM MST
Astronomical Twilight 5:45 AM MST 6:29 PM MST
Moon 5:42 PM MST (1/9) 7:24 AM MST (1/9)
Length of Visible Light 10h 31m
Length of Day
9h 31m
Full, 100% of the Moon is Illuminated
Jan 9
Full
Jan 16
Last Quarter
Jan 23
New
Jan 30
First Quarter
Feb 7
Full

Hourly Weather History & Observations

Time (MST) Temp. Windchill Dew Point Humidity Pressure Visibility Wind Dir Wind Speed Gust Speed Precip Events Conditions
12:02 AM 28.4 °F - 12.2 °F 51% 30.18 in 10.0 mi Calm Calm - N/A   Clear
12:22 AM 28.4 °F - 12.2 °F 51% 30.18 in 10.0 mi Calm Calm - N/A   Clear
12:42 AM 28.4 °F - 12.2 °F 51% 30.18 in 10.0 mi Calm Calm - N/A   Clear
1:02 AM 26.6 °F - 12.2 °F 55% 30.17 in 10.0 mi Calm Calm - N/A   Clear
1:22 AM 28.4 °F 24.6 °F 12.2 °F 51% 30.18 in 10.0 mi West 3.5 mph - N/A   Clear
1:41 AM 30.2 °F - 12.2 °F 47% 30.18 in 10.0 mi Calm Calm - N/A   Clear
2:02 AM 32.0 °F - 10.4 °F 41% 30.19 in 10.0 mi Calm Calm - N/A   Clear
2:22 AM 26.6 °F - 12.2 °F 55% 30.19 in 10.0 mi Calm Calm - N/A   Clear
2:42 AM 26.6 °F - 12.2 °F 55% 30.19 in 10.0 mi Calm Calm - N/A   Clear
3:02 AM 26.6 °F - 12.2 °F 55% 30.20 in 10.0 mi Calm Calm - N/A   Clear
3:21 AM 28.4 °F - 12.2 °F 51% 30.20 in 10.0 mi Calm Calm - N/A   Clear
3:41 AM 32.0 °F 28.7 °F 10.4 °F 41% 30.20 in 10.0 mi North 3.5 mph - N/A   Clear
4:02 AM 30.2 °F 22.6 °F 10.4 °F 44% 30.21 in 10.0 mi North 8.1 mph - N/A   Clear
4:22 AM 30.2 °F 21.9 °F 10.4 °F 44% 30.21 in 10.0 mi NNW 9.2 mph - N/A   Clear
4:42 AM 30.2 °F - 10.4 °F 44% 30.22 in 10.0 mi Calm Calm - N/A   Clear
5:47 AM 26.6 °F 21.2 °F 12.2 °F 55% 30.24 in 30.0 mi SW 4.6 mph - N/A   Partly Cloudy
7:48 AM 28.4 °F 24.6 °F 12.2 °F 51% 30.24 in 40.0 mi Variable 3.5 mph - N/A   Partly Cloudy
9:53 AM 41.0 °F 38.0 °F 19.4 °F 42% 30.25 in 70.0 mi South 4.6 mph - N/A   Scattered Clouds
10:53 AM 46.4 °F 43.5 °F 17.6 °F 32% 30.24 in 70.0 mi South 5.8 mph - N/A   Scattered Clouds
11:50 AM 48.2 °F - 19.4 °F 32% 30.21 in 50.0 mi SE 5.8 mph - N/A   Scattered Clouds
12:55 PM 50.0 °F - 17.6 °F 28% 30.19 in 50.0 mi ESE 5.8 mph - N/A   Scattered Clouds
1:48 PM 50.0 °F - 17.6 °F 28% 30.18 in 60.0 mi Calm Calm - N/A   Scattered Clouds
2:47 PM 50.0 °F - 17.6 °F 28% 30.18 in 70.0 mi Calm Calm - N/A   Scattered Clouds
3:48 PM 50.0 °F - 19.4 °F 30% 30.18 in 70.0 mi East 4.6 mph - N/A   Scattered Clouds
4:48 PM 46.4 °F 45.2 °F 19.4 °F 34% 30.18 in 60.0 mi South 3.5 mph - N/A   Scattered Clouds
5:48 PM 39.2 °F - 21.2 °F 49% 30.18 in 30.0 mi Calm Calm - N/A   Partly Cloudy
6:45 PM 39.2 °F 37.0 °F 23.0 °F 52% 30.18 in 30.0 mi SW 3.5 mph - N/A   Partly Cloudy
7:48 PM 39.2 °F 33.0 °F 23.0 °F 52% 30.18 in 25.0 mi WSW 9.2 mph - N/A   Clear
8:50 PM 39.2 °F 35.0 °F 23.0 °F 52% 30.17 in 25.0 mi WSW 5.8 mph - N/A   Partly Cloudy
9:54 PM 35.6 °F - 24.8 °F 65% 30.16 in 25.0 mi Calm Calm - N/A   Partly Cloudy
10:02 PM 35.6 °F 32.8 °F 23.0 °F 60% 30.16 in 10.0 mi South 3.5 mph - N/A   Clear
10:22 PM 33.8 °F 29.6 °F 24.8 °F 70% 30.16 in 10.0 mi South 4.6 mph - N/A   Clear
10:42 PM 35.6 °F 32.8 °F 24.8 °F 65% 30.15 in 10.0 mi SW 3.5 mph - N/A   Clear
11:02 PM 33.8 °F - 23.0 °F 65% 30.14 in 10.0 mi Calm Calm - N/A   Clear
11:22 PM 37.4 °F - 24.8 °F 60% 30.13 in 10.0 mi Calm Calm - N/A   Clear
11:42 PM 37.4 °F - 23.0 °F 56% 30.13 in 10.0 mi Calm Calm - N/A   Clear